Home   Weather   Kaunas   Past weeks
Flag for Lithuania

Past Weather in Kaunas, Lithuania — Yesterday and Last 2 Weeks

Now
46 °F

Fog.


Feels Like: 46 °F
Forecast: 65 / 54 °F
Wind: No wind

Location: Kaunas

Current Time: Oct 15, 2019 at 4:39:20 am

Latest Report: Oct 15, 2019 at 3:50 am


Visibility: 3 mi

Pressure: 30.04 "Hg

Humidity: 93%

Dew Point: 45 °F

Location of KaunasLocation

Past Weather in Kaunas — Graph

°F

Kaunas Temperature Yesterday

Maximum temperature yesterday: 70 °F (at 3:20 pm)
Minimum temperature yesterday: 48 °F (at 12:20 am)
Average temperature yesterday: 59 °F

High & Low Weather Summary for the Past Weeks

 TemperatureHumidityPressure
High70 °F (Oct 14, 3:20 pm)100% (Sep 30, 8:20 am)30.12 "Hg (Sep 30, 8:20 am)
Low27 °F (Oct 6, 7:50 am)53% (Oct 5, 2:50 pm)29.12 "Hg (Sep 30, 5:20 pm)
Average48 °F87%29.75 "Hg
* Reported Sep 30 3:20 am — Oct 15 3:20 am, Kaunas. Weather by CustomWeather, © 2019

Note: Actual official high and low records may vary slightly from our data, if they occured in-between our weather recording intervals... More about our weather records

Advertising

Kaunas Weather History for the Previous 24 Hours

Scroll right to see more
 ConditionsComfort  
Time TempWeatherWind HumidityBarometerVisibility
3:20 am
Tue, Oct 15
46 °FCool.No wind93%30.07 "Hg6 mi
2:50 am48 °FPassing clouds.1 mph94%30.07 "HgN/A
2:20 am48 °FOvercast.2 mph94%30.04 "HgN/A
1:50 am48 °FPassing clouds.1 mph94%30.04 "HgN/A
1:20 am48 °FOvercast.2 mph94%30.04 "HgN/A
12:50 am48 °FPassing clouds.1 mph94%30.04 "HgN/A
12:20 am48 °FPassing clouds.3 mph100%30.04 "HgN/A
11:50 pm
Mon, Oct 14
50 °FClear.5 mph94%30.01 "Hg10 mi
11:20 pm50 °FClear.3 mph94%30.01 "Hg10 mi
10:50 pm52 °FPassing clouds.6 mph88%30.01 "HgN/A
10:20 pm52 °FClear.6 mph88%30.01 "Hg10 mi
9:50 pm52 °FClear.8 mph88%30.01 "Hg10 mi
9:20 pm54 °FPassing clouds.6 mph82%29.98 "HgN/A
8:50 pm55 °FClear.10 mph77%29.98 "Hg10 mi
8:20 pm57 °FClear.13 mph77%29.98 "Hg10 mi
7:50 pm59 °FClear.12 mph77%29.95 "Hg10 mi
7:20 pm61 °FPassing clouds.9 mph77%29.95 "HgN/A
6:50 pm63 °FClear.12 mph68%29.92 "Hg10 mi
6:20 pm63 °FSunny.7 mph68%29.92 "Hg10 mi
5:50 pm66 °FSunny.15 mph60%29.89 "Hg10 mi
5:20 pm68 °FSunny.15 mph56%29.89 "Hg10 mi
4:50 pm68 °FPassing clouds.14 mph60%29.89 "HgN/A
4:20 pm70 °FScattered clouds.15 mph60%29.89 "HgN/A
3:50 pm68 °FSunny.17 mph60%29.86 "Hg10 mi
3:20 pm70 °FBroken clouds.18 mph60%29.86 "HgN/A
2:50 pm68 °FPartly sunny.16 mph69%29.86 "HgN/A
2:20 pm68 °FPartly sunny.18 mph64%29.86 "HgN/A
1:50 pm68 °FPartly sunny.15 mph64%29.86 "HgN/A
1:20 pm68 °FPartly sunny.14 mph64%29.86 "HgN/A
12:50 pm68 °FSunny.16 mph64%29.86 "Hg10 mi
12:20 pm66 °FPassing clouds.12 mph68%29.86 "HgN/A
11:50 am64 °FPassing clouds.13 mph68%29.86 "HgN/A
11:20 am63 °FPassing clouds.13 mph73%29.86 "HgN/A
10:50 am63 °FPassing clouds.13 mph73%29.86 "HgN/A
10:20 am61 °FPassing clouds.12 mph77%29.86 "HgN/A
9:50 am59 °FPassing clouds.9 mph82%29.86 "HgN/A
9:20 am59 °FPassing clouds.9 mph82%29.83 "HgN/A
8:50 am57 °FPassing clouds.8 mph88%29.83 "HgN/A
8:20 am57 °FPassing clouds.7 mph88%29.86 "HgN/A
7:50 am57 °FPassing clouds.13 mph88%29.83 "HgN/A
7:20 am57 °FPassing clouds.12 mph88%29.83 "HgN/A
6:50 am55 °FPassing clouds.10 mph94%29.86 "HgN/A
6:20 am57 °FPassing clouds.12 mph88%29.86 "HgN/A
5:50 am55 °FPassing clouds.7 mph94%29.86 "HgN/A
5:20 am55 °FPassing clouds.6 mph94%29.89 "HgN/A
4:50 am54 °FClear.5 mph100%29.92 "Hg10 mi
4:20 am54 °FPassing clouds.6 mph94%29.92 "HgN/A
Weather by CustomWeather, © 2019

See weather overview